Showing default

SKYSAT C13, 43802

Orbit data source: Space-Track

SKYSAT C13, 43802 is a payload satellite owned by Terra Bella (US) in SSO that was launched on Mon, 03 Dec 2018 UTC via an FALCON 9 launch vehicle from the Air Force Western Test Range (AFWTR). Payload-class satellites include a variety of spacecraft equipped with specific instruments for various scientific and technological missions. These include communications satellites like Starlink; space stations such as the ISS; scientific satellites like the Hubble; Earth observation satellites from companies like Planet Labs, Umbra, and HawkEye 360; GPS; miniature CubeSats for education and research; and military/defense satellites.

Not visible in the next 10 days
Identifier
43802, 2018-099AW
Orbit
SSO
Country
Flag of USUS
Related business
Manufacturer
Maxar SSL
Mission
Operational Commercial Imaging
Bus & Motor
SKYSAT-GEN2, Unknown motor
Mass
110 kg wet, 110 kg dry
Launch date (UTC)
2018-12-03 (7 years ago)
Launch vehicle
FALCON 9
Launch site
Air Force Western Test Range (AFWTR)
Object type
Payload
Rocket body
Debris
Shape & HBR
Box, 1.0 m
Radar Cross Section
0.888 m², Medium (>0.1 m² and < 1m²)

Expand to show TLE details & history
Last TLE update: 13 hours ago

TLE from 13 hours ago
0 SKYSAT C13
1 43802U 18099AW  26034.39287230  .00067435  00000-0  53276-3 0  9994
2 43802  96.9483  82.0808 0004361  21.0610 339.0832 15.71170757401776
Epoch: 2026-02-03T09:25Z
TLE epoch observation values (Epoch: 2026-02-03T09:25:44.166Z)
Latitude
-0.00012°
Longitude
167.07233°
Altitude
355.979 km
Speed
7.697 km/s
True Right ascension
05h 28m 19s
True Declination
0° 00' 00"
Sunlit
Object was in full shadow at epoch
Visualization orbit readout
Latitude
Unknown
Longitude
Unknown
Altitude
Unknown
Speed
Unknown
Apparent Right ascension
Unknown
Apparent Declination
Unknown
Sunlit
N/A
Visualization observer readout
Local Sidereal Time
00:34:08
Azimuth
Unknown
Elevation
Unknown
Doppler factor
Unknown
Orbital elements
Apogee altitude
355.364 km
Perigee altitude
349.493 km
Semi-major axis
6,730.565 km
Eccentricity
0.00044
Inclination
96.9483°
RAAN
82.0808°
Arg. of periapsis
21.061°
True anomaly
339.06535°
Mean anomaly
339.0832°
Eccentric anomaly
339.07428°
Mean motion
3.93066 °/min
Orbital period
91.59 mins
BSTAR
0.00053276
Loading maneuver chart data...
Computing Atmospheric mass density...
Loading historical data...
Loading historical data...
Loading historical data...
Loading historical data...
Loading historical data...
Loading historical data...
Loading historical data...

Documentation

Showing up to 5 results
|